Location: Arrodets-la-Barthe
(43.0306°N, 0.2829°E)
Time: 13:49:12
(UTC+00:00)

Daily predictions for brighter satellites

Satellite Brightness Start Highest point End
(mag) Time Altitude Azimuth Time Altitude Azimuth Time Altitude Azimuth
BREEZE M DEB (TANK) 3.8 17:10:08 10° WNW 17:13:39 89° NNE 17:34:54 10° ESE
Cosmos 1844 Rocket 4.1 17:24:18 10° N 17:28:08 18° NE 17:31:56 10° E
USA 215 3.6 17:23:43 10° NE 17:30:12 67° NW 17:36:40 10° WSW
USA 229 DEB 4.4 17:25:47 10° S 17:31:08 30° ESE 17:36:44 10° NE
USA 229 4.4 17:25:56 10° S 17:31:15 29° ESE 17:36:49 10° NE
Cosmos 1934 Rocket 4.3 17:27:08 10° SSE 17:32:50 44° E 17:38:31 10° NNE
Lacrosse 4 Rocket 2.6 17:29:52 10° N 17:33:25 24° NE 17:37:01 10° ESE
Cosmos 389 Rocket 4.0 17:31:10 10° SW 17:34:21 38° WNW 17:37:36 10° N
NOAA 6 4.4 17:29:44 10° S 17:34:55 75° WSW 17:40:08 10° NNW
Cosmos 1953 2.4 17:31:03 10° S 17:35:05 86° W 17:39:10 10° N
Meteor 1-21 Rocket 4.4 17:29:25 10° N 17:35:21 86° E 17:41:17 10° S
OE (NEXTSAT) 4.3 17:32:39 10° WSW 17:36:04 80° SSE 17:39:30 10° ENE
NOSS 8 (F) 4.2 17:34:08 10° SSW 17:37:46 75° SE 17:40:46 10° NE
Okean O Rocket 2.1 17:36:08 10° SE 17:40:06 36° ENE 17:44:06 10° N
H-2A R/B 2.3 17:36:08 10° SSE 17:41:23 56° ENE 17:46:44 10° N
Cosmos 332 Rocket 4.4 17:40:31 10° SSE 17:44:57 36° ESE 17:49:25 10° NE
deb Chang Zheng 4 3.5 17:40:54 10° SSE 17:45:02 62° ENE 17:49:13 10° N
Cosmos 2278 4.5 17:40:00 10° SW 17:45:33 56° WNW 17:51:11 10° NNE
ATLAS 3B R/B 4.3 17:42:25 10° W 17:47:56 27° NW 17:53:43 10° NNE
X-37B 0.3 17:45:12 10° WNW 17:48:07 77° NNE 17:50:32 14° E
SL-8 R/B 4.2 17:47:03 10° W 17:51:44 52° NNW 17:56:02 12° ENE
Cosmos 1602 Rocket 4.5 17:48:10 10° NNE 17:51:49 26° ENE 17:55:28 10° SE
ATLAS 5 CENTAUR R/B 3.2 17:49:24 10° WSW 17:52:49 28° NW 17:56:37 10° NNE
NOSS 3-1 (A) 3.6 17:48:44 10° S 17:53:31 40° ESE 17:58:59 10° NE
Cosmos 1300 2.6 17:53:46 10° S 17:57:31 63° E 18:01:17 10° NNE
COSMO-SKYMED 1 2.6 17:53:17 10° NNE 17:57:36 59° E 18:01:52 10° S
SL-16 R/B 2.2 17:52:09 10° SSW 17:57:46 70° ESE 18:03:26 10° NNE
Cosmos 1269 Rocket 4.3 17:53:41 10° NNW 17:58:59 76° WSW 18:04:14 10° SSE
Okean 1-7 Rocket 3.5 17:54:45 10° N 17:59:10 67° E 18:03:35 10° SSE
Cosmos 2123 Rocket 4.0 17:56:29 10° N 18:02:49 74° E 18:09:06 10° SSE
USA 267 3.3 17:56:58 10° SE 18:03:30 89° SSW 18:10:06 10° NW
Okean-O 4.1 18:02:47 17° ENE 18:03:38 17° ENE 18:06:32 10° NNE
CZ-4 R/B 2.3 18:02:24 10° SE 18:05:52 28° ENE 18:09:24 10° N
BREEZE-M R/B 3.1 18:03:03 10° WNW 18:06:29 44° NNE 18:09:11 19° E
FALCON 9 DEB 4.3 18:05:44 10° S 18:07:59 20° SE 18:08:22 20° ESE
Cosmos 2322 Rocket 2.1 18:04:26 10° SSW 18:09:58 67° ESE 18:15:33 10° NNE
Cosmos 371 Rocket 3.6 18:06:24 10° SSW 18:11:14 73° WNW 18:16:09 10° NNE
NOSS 2-3 (D) 3.5 18:09:40 10° SW 18:13:40 84° NW 18:18:15 10° NE
SJ-11-01 4.2 18:10:36 10° SSE 18:15:15 70° ENE 18:19:58 10° N
Cosmos 2219 Rocket 3.7 18:13:23 10° SE 18:15:44 16° ESE 18:15:44 16° ESE
NOSS 3-1 (C) 3.3 18:12:29 10° SW 18:17:41 76° NW 18:23:50 10° NE
SL-08 RB Rocket 3.9 18:13:27 10° SE 18:17:49 48° ENE 18:22:16 10° N
Cosmos 2251 Rocket 3.8 18:13:42 10° N 18:18:44 45° ENE 18:23:31 11° SE
Cosmos 2360 Rocket 2.4 18:14:17 10° S 18:19:39 47° ESE 18:25:04 10° NE
Cosmos 1844 4.3 18:15:31 10° N 18:20:51 36° NE 18:23:55 22° ESE
Cosmos 1758 Rocket 4.1 18:17:26 10° N 18:21:24 34° ENE 18:24:09 17° SE
Cosmos 2228 3.8 18:19:16 10° SSE 18:23:06 30° E 18:26:56 10° NNE
Tiangong 1.3 18:20:27 10° W 18:23:38 64° S 18:24:40 37° ESE
H-2A R/B 2.5 18:19:34 10° SSE 18:23:45 55° ENE 18:27:49 10° N
NOSS 2-3 (C) 3.9 18:22:17 10° SW 18:26:16 61° NW 18:30:51 10° NNE
Cosmos 2333 Rocket 3.1 18:22:11 10° SSE 18:26:48 27° ESE 18:27:35 26° E
Cosmos 1626 Rocket 3.4 18:22:28 10° N 18:26:48 90° S 18:31:07 10° S
ARGOS 3.1 18:21:25 10° SSE 18:26:49 85° ENE 18:32:17 10° NNW
SWARM C 4.4 18:24:29 10° S 18:27:44 64° E 18:31:02 10° N
SWARM A 4.1 18:24:41 10° S 18:27:57 64° E 18:31:15 10° N
Feng Yun 1-1 Rocket 4.2 18:23:29 10° SSE 18:29:01 71° ENE 18:34:44 10° N
CZ-4B R/B 4.0 18:27:29 10° S 18:33:02 57° W 18:38:38 10° NNW
Meteor 1-4 Rocket 2.4 18:30:27 10° SSW 18:33:56 81° W 18:37:23 10° N
Cosmos 220 Rocket 3.9 18:31:52 10° SSW 18:36:17 84° ESE 18:40:42 10° NNE
CZ-4C R/B 3.4 18:33:55 10° N 18:37:12 59° WNW 18:40:24 10° SSW
Cosmos 44 3.4 18:33:07 10° SSW 18:38:33 79° ESE 18:42:36 18° NE
In-Cosmos 22 Rocket 3.9 18:34:30 10° N 18:39:49 69° ENE 18:45:06 10° SSE
Cosmos 2263 Rocket 4.1 18:35:04 10° NW 18:39:50 30° WSW 18:44:35 10° SSW
CZ-2C R/B 3.6 18:44:11 10° SW 18:45:22 11° SSW 18:46:33 10° S
CSL-04 Debris 4.5 18:44:16 35° ESE 18:45:43 42° ENE 18:50:48 10° N
Iridium 4 Rocket 4.4 18:41:23 10° NNW 18:45:55 47° W 18:50:50 10° SSW
Cosmos 614 Rocket 3.8 18:41:58 10° NNW 18:47:05 84° ENE 18:51:33 14° SSE
Cosmos 1605 Rocket 4.1 18:41:56 10° SSW 18:48:12 78° W 18:54:36 10° N
YAOGAN 1 2.4 18:44:01 10° SSE 18:48:20 85° ENE 18:52:40 10° NNW
CZ-2C R/B 3.3 18:43:06 10° N 18:48:35 59° WNW 18:53:57 10° SSW
IRS-1C Rocket 4.0 18:45:20 17° SSE 18:49:23 61° ENE 18:54:35 10° N
Cosmos 2322 4.2 18:44:33 10° S 18:49:21 36° ESE 18:49:21 36° ESE
Cosmos 2344 4.3 18:41:38 10° NW 18:50:58 78° NE 19:04:01 10° SE
Cosmos 1892 2.5 18:48:20 10° N 18:52:07 87° E 18:53:16 43° S
H-2A R/B 1.8 18:51:00 42° NE 18:52:12 63° ESE 18:56:22 10° S
CSL-04 Rocket 3.9 18:56:00 44° E 18:56:56 49° ENE 19:02:16 10° N
Cosmos 1447 Rocket 4.4 18:52:47 10° N 18:58:58 90° W 19:05:07 10° S
Cosmos 1408 3.1 19:05:48 10° NNW 19:08:50 53° NW 19:08:50 53° NW
Lacrosse 4 Rocket 2.8 19:08:09 10° NW 19:12:12 38° WSW 19:14:55 19° S
Cosmos 1844 Rocket 2.7 19:07:05 10° NNW 19:12:41 78° WSW 19:15:10 34° SSE
Orbus 7S? 3.7 19:08:39 10° NW 19:16:02 77° NNE 19:16:02 77° NNE
Okean O Rocket 4.1 19:13:15 10° SW 19:16:33 21° W 19:19:53 10° NW
USA 229 DEB 4.1 19:15:21 10° SW 19:21:37 56° NW 19:26:38 18° NNE
USA 229 4.1 19:15:28 10° SW 19:21:43 57° NW 19:26:42 18° NNE
IRS-P2 Rocket 4.4 19:22:38 82° ESE 19:22:48 84° ENE 19:28:02 10° NNW
X-37B 3.5 19:21:08 10° W 19:21:56 15° WSW 19:21:56 15° WSW
COSMOS 2428 4.5 19:25:37 10° S 19:27:05 18° S 19:27:05 18° S
Cosmos 2278 Rocket 3.9 19:32:18 10° N 19:34:34 20° NNE 19:34:34 20° NNE
Cosmos 2333 4.3 19:32:50 10° SSW 19:38:26 72° WNW 19:39:18 61° N
Cosmos 2346 Rocket 4.4 19:32:20 10° N 19:38:13 76° NNE 19:38:13 76° NNE
Okean-O 3.6 19:40:23 45° WNW 19:40:23 45° WNW 19:44:02 10° NNW
CZ-4 R/B 3.6 19:37:34 10° SSW 19:40:49 24° W 19:44:10 10° NW
SL-16 R/B 4.5 19:38:15 10° W 19:42:27 21° NW 19:46:39 10° N
Cosmos 2322 Rocket 4.4 19:50:19 10° W 19:54:32 21° NW 19:58:47 10° N
Cosmos 2219 Rocket 3.5 19:54:42 10° SSW 19:57:34 31° SW 19:57:34 31° SW
CENTAUR R/B 4.1 19:53:39 10° NNW 19:59:45 31° NNE 19:59:45 31° NNE
Cosmos 2360 Rocket 4.0 19:59:03 10° WSW 20:03:52 28° NW 20:07:53 14° N
Cosmos 2333 Rocket 3.2 20:05:19 10° SW 20:09:42 42° W 20:09:42 42° W
